OBJECT D, 43665

Orbit data source: Space-Track

You're viewing an Uncataloged Satellite

Recently launched and/or uncataloged satellites may have evolving metadata. Metadata may include but not limited to: Owner, Maufacturer, Bus, Motor, and Mission.

OBJECT D, 43665 is a Chinese satellite in SSO that was launched on Mon, 29 Oct 2018 UTC via a CHANG ZHENG 2C launch vehicle from the Jiuquan Satellite Launch Center, China (JSC). Unknown objects in Earth's orbit typically refer to objects detected orbiting the Earth but have not yet been identified or cataloged. These objects could be anything from previously untracked satellites, spent rocket stages, debris from satellite collisions, or even natural meteoroids temporarily captured by Earth's gravity.

Not visible in the next 10 days
OBJECT D details
Identifier
43665, 2018-083D
Orbit
SSO
Last TLE update7 hours ago
Origin
Flag of CNGUOX/CTYK (CN / PRC)
ManufacturerChangsha Tianyi
MissionCommercial Imaging
Bus & MotorCUBESAT 6U?, Unknown motor
Mass8 kg wet, 8 kg dry
Launch date (UTC)
2018-10-29 (6 years ago)
Launch vehicle
CHANG ZHENG 2C
Launch site
Jiuquan Satellite Launch Center, China (JSC)
Object typeUnknown
Shape & HBRBox, 0.3 m
Radar Cross Section0.080 m², Medium (>0.1 m² and < 1m²)

Expand to show TLE details & history

TLE from 7 hours ago
0 OBJECT D
1 43665U 18083D   24361.48726936  .01168566  70148-3  23837-2 0  9996
2 43665  97.2971  34.7362 0000825 227.9381 132.1827 15.99608140342908
Epoch: 2024-12-26T11:41Z
Definitive object data (Epoch: 2024-12-26T11:41:40.072Z)
Latitude-0.00006°
Longitude123.85328°
Altitude279.074 km
Speed7.74 km/s
True Right ascension02h 18m 56s
True Declination0° 00' 00"
Sunlit
Object was in full shadow at TLE epoch
Visualization TLE readout
Latitude-47.037°
Longitude132.04316°
Altitude291.732 km
Speed7.731 km/s
Apparent Right ascension04h 41m 21s
Apparent Declination-46° 30' 45"
Sunlit
Object is in daylight
Visualization observer readout
Local Sidereal Time18:22:43
Azimuth118.114° SE
Elevation-70.492°
Doppler factor1
Orbital elements
Apogee altitude272.91 km
Perigee altitude271.812 km
Semi-major axis6,650.498 km
Eccentricity0.0000825
Inclination97.2971°
RAAN34.7362°
Arg. of periapsis227.9381°
True anomaly132.1897°
Mean anomaly132.1827°
Eccentric anomaly132.1862°
Mean motion4.00186 °/min
BSTAR0.0023837
Orbital period89.96 mins
Loading maneuver chart data...
Loading historical data...
Loading historical data...
Loading historical data...
Loading historical data...
Loading historical data...
Loading historical data...
Loading historical data...

OBJECT D Visibility forecast

Observer location: undefined°, undefined

OBJECT D is not visible in the next 10 days
Span
Click to sort rows by Start time (UTC) header in descending order
Start Az.
Max El. time (UTC)
Max El. Az.
Max El.
End time (UTC)
End Az.
|